Wind_Speed
6 5 2 0 4 3 4 5 1 7 6 3 6 7 9 1 3 1 9 13 8 4 0 3 5 5 5 7 7 7 8 9 10 10 10 10 10 11 10 10 11 11 12 12 12 13 13 13 13
4 4 0 2 4 4 3 6 9 8 5 10 7 4 4 3 3 3 11 10 6 4 1 3 4 4 6 7 8 9 10 11 11 10 10 10 11 12 13 13 13 14 14 14 14 14 16 15 14
5 4 2 2 3 5 1 8 8 7 13 6 5 4 2 2 6 8 13 10 6 2 2 4 3 3 4 5 6 8 10 11 12 13 14 13 14 15 14 15 15 17 18 19 19 19 18 18 18
5 2 1 5 5 2 2 8 9 13 6 5 3 4 3 9 7 11 13 10 6 5 6 5 2 0 1 1 3 4 5 6 7 8 9 10 12 14 15 16 18 20 20 20 21 21 22 22 21
5 2 3 3 4 2 3 6 13 14 8 8 8 2 3 12 13 13 14 11 10 9 7 4 2 2 2 2 2 3 3 4 5 6 6 8 10 11 13 14 16 18 20 22 23 24 23 23 24
3 1 4 6 4 3 3 8 12 13 7 6 6 4 3 10 17 17 16 15 13 11 8 5 4 4 4 5 5 4 4 5 5 6 6 8 9 11 13 14 17 19 20 20 21 23 24 25 24
3 3 2 2 3 3 4 10 12 15 9 7 3 4 4 13 20 19 19 17 14 12 9 7 6 6 6 6 7 7 7 6 7 7 8 9 11 13 14 16 17 19 20 21 23 23 24 26 27
2 2 2 3 3 3 7 10 5 14 11 8 10 6 5 16 22 23 21 19 17 15 12 10 9 9 8 8 7 6 6 5 5 6 8 9 11 13 14 15 17 19 21 22 24 23 25 25 25
2 3 4 4 5 3 9 9 6 8 6 10 11 11 10 9 23 25 25 24 21 19 16 15 13 12 10 9 7 6 4 4 3 4 5 7 9 11 13 14 16 18 19 20 21 23 24 23 26
3 3 3 1 3 3 7 11 8 7 10 11 14 22 19 15 25 28 29 28 25 23 21 18 16 14 12 11 9 7 6 4 3 3 5 7 9 11 14 15 17 18 18 18 19 20 21 22 23
3 3 0 3 6 4 5 7 8 8 11 18 19 18 24 22 27 29 29 27 27 25 23 20 18 17 15 12 10 8 5 4 3 4 6 8 11 13 16 19 20 20 20 21 21 21 21 20 21
4 5 4 2 5 4 5 5 6 18 21 13 14 17 19 27 30 32 31 30 31 29 25 23 20 17 15 13 10 8 6 5 5 6 7 10 12 15 18 20 21 21 21 22 23 24 25 25 24
5 5 6 6 7 8 6 11 10 19 23 23 23 20 21 25 29 31 31 31 32 30 27 25 21 19 16 14 11 10 9 7 7 8 9 11 14 17 19 21 22 23 24 24 24 25 26 26 28
4 5 6 6 7 6 7 6 3 9 11 20 25 26 25 27 29 30 35 36 36 32 30 27 24 21 18 15 14 12 10 9 8 8 10 12 15 18 20 22 24 25 26 27 28 28 29 30 30
1 6 6 12 7 5 5 9 12 23 16 16 20 22 26 29 29 36 36 39 38 36 32 30 27 23 20 18 17 14 11 9 8 9 11 13 15 18 19 21 23 25 27 29 31 32 32 32 33
3 3 5 5 9 3 5 14 13 10 14 19 20 20 25 29 33 34 36 38 37 36 36 32 29 26 23 22 19 16 13 11 9 9 11 13 16 18 20 22 23 23 26 29 31 32 34 35 37
4 10 9 4 13 5 11 15 5 9 11 19 22 23 25 27 31 35 38 39 40 38 36 34 30 28 25 23 19 16 14 11 9 9 10 13 16 18 20 22 24 24 27 29 31 32 35 37 39
12 8 8 10 6 8 10 22 23 23 17 31 33 30 28 30 36 34 38 39 41 40 38 35 33 31 27 24 20 18 16 14 11 10 11 14 17 19 21 23 24 25 28 30 32 34 35 36 38
7 8 17 14 4 5 18 22 25 28 26 33 36 32 31 32 29 31 37 40 42 42 40 38 36 33 29 26 23 21 19 17 14 12 12 14 17 20 23 24 24 26 29 31 32 34 34 35 37
10 13 22 14 3 8 15 22 22 23 30 34 36 36 30 26 23 27 34 40 44 44 43 41 39 35 31 28 26 24 22 19 15 13 13 15 18 21 22 23 23 27 29 31 32 33 35 35 33
12 18 17 11 4 8 10 16 10 8 19 27 36 35 27 25 24 26 31 36 42 47 47 45 41 38 34 31 29 27 25 21 17 15 16 17 19 21 22 22 23 27 30 32 33 35 35 35 34
14 8 12 8 5 12 3 18 13 14 14 12 32 23 21 25 24 23 26 31 38 45 47 46 42 40 36 34 32 30 26 22 19 17 18 19 19 20 21 22 24 28 31 32 34 35 35 35 36
6 2 4 3 8 6 12 10 9 2 6 17 16 25 20 20 22 22 24 26 28 35 44 46 45 42 39 36 33 30 27 23 21 19 19 19 19 20 21 23 27 30 31 32 34 35 35 35 36
8 3 1 2 4 10 18 18 5 5 7 8 16 22 18 15 17 18 20 20 24 27 36 44 47 45 42 39 35 32 27 24 21 20 18 19 20 21 22 24 27 29 31 32 34 36 36 36 37
4 3 5 6 6 15 2 8 15 14 12 14 18 23 8 12 16 16 19 22 23 24 29 40 48 47 45 41 37 32 27 24 21 19 19 20 22 22 22 24 27 30 32 33 35 37 36 37 37
11 6 6 14 15 25 5 11 11 11 20 30 18 22 21 15 17 18 19 20 21 22 25 34 47 50 48 44 38 33 28 24 22 20 21 20 21 22 23 26 30 32 34 35 36 37 38 38 39
8 8 2 6 2 9 13 21 7 9 13 9 19 17 23 24 20 20 20 22 22 21 26 32 42 52 50 45 39 34 29 24 21 21 21 20 21 23 25 30 33 34 35 36 37 37 37 37 38
3 3 4 3 7 19 27 30 19 12 15 12 11 17 23 20 22 25 23 23 21 22 25 29 37 50 50 45 40 35 29 24 23 21 20 20 21 24 28 32 34 35 36 36 37 37 37 37 39
5 6 5 2 4 10 20 12 4 5 4 8 13 21 16 19 20 28 23 23 24 24 28 33 38 47 51 46 41 34 29 25 22 20 20 20 22 25 29 33 35 37 37 36 37 39 40 40 41
2 10 15 8 8 11 11 28 3 3 5 4 4 10 13 15 22 23 23 27 30 29 31 36 39 47 51 46 40 33 28 23 21 20 20 21 23 26 31 34 36 37 37 37 38 39 39 40 41
Wind_Direction
161 154 139 128 229 224 156 179 179 164 176 161 154 197 209 352 210 319 160 167 174 190 273 284 295 296 281 267 255 252 242 247 244 244 253 255 255 257 256 258 267 272 277 280 285 292 304 308 308
175 174 140 259 249 240 150 165 196 170 146 140 143 149 195 198 177 167 155 173 174 193 200 300 276 284 277 269 263 261 266 269 268 266 268 272 276 278 277 281 280 280 278 278 279 280 281 289 297
169 175 225 259 263 259 237 187 173 146 146 157 155 191 196 202 185 172 179 178 183 200 258 277 293 297 281 276 275 276 275 276 278 279 279 278 277 277 282 283 283 281 280 279 277 276 276 274 275
160 161 78 245 243 241 282 180 163 146 185 203 199 202 223 196 177 188 189 183 179 193 202 202 153 97 37 300 293 285 277 276 278 282 284 282 282 283 281 279 277 278 280 281 281 280 278 277 276
180 208 223 236 229 251 221 187 176 171 172 187 189 203 216 204 196 186 185 184 183 195 187 170 203 263 300 299 292 290 292 294 286 285 289 292 293 294 294 290 284 279 277 277 277 277 278 280 277
217 247 237 247 223 221 209 190 182 192 187 170 201 200 216 216 201 192 188 191 190 192 193 200 227 255 277 291 291 289 291 292 298 299 301 304 305 306 304 301 298 296 295 289 282 276 274 271 270
250 228 275 264 268 243 198 171 199 204 210 216 229 229 208 211 202 197 197 195 197 202 206 217 233 256 264 270 278 288 300 309 316 324 331 331 329 326 322 317 311 308 302 297 291 288 283 278 273
187 237 203 214 229 246 157 169 205 205 219 221 202 233 222 217 204 199 201 201 204 208 212 222 236 246 251 256 262 272 284 302 320 333 335 332 328 324 321 319 314 313 312 308 303 297 289 283 279
163 240 237 224 195 153 164 193 190 210 209 206 212 227 230 212 204 203 204 206 208 210 216 222 229 232 236 240 240 243 245 260 291 316 327 327 326 324 321 320 322 322 318 315 312 308 305 299 290
233 257 257 212 209 223 188 207 193 191 207 231 234 235 232 223 210 210 210 210 211 214 217 220 224 226 227 228 230 230 235 247 280 314 331 336 334 332 327 325 325 324 323 322 317 314 309 306 302
176 258 230 241 232 224 219 216 199 225 229 229 227 231 232 223 216 217 218 216 217 218 218 220 221 222 222 222 223 227 238 263 289 316 326 332 337 337 335 331 328 326 326 325 324 323 320 319 314
219 231 224 222 205 193 218 182 219 223 243 245 240 242 237 224 222 221 219 216 216 219 221 221 221 222 222 223 229 236 243 250 274 297 318 330 334 337 334 330 326 325 325 326 326 325 324 321 319
224 207 216 235 227 226 225 234 249 247 251 254 256 250 238 230 228 224 222 223 223 221 221 223 224 224 224 226 229 237 247 262 283 304 316 327 332 331 329 327 324 325 329 330 328 325 323 321 319
186 236 252 252 234 228 235 240 217 257 234 233 244 246 241 235 230 223 221 222 222 221 223 224 224 225 225 227 232 238 245 259 277 299 317 325 326 326 326 326 324 325 327 328 326 324 322 321 318
282 284 253 227 221 237 209 259 233 258 245 242 240 239 238 237 228 231 229 224 224 223 224 224 225 225 224 226 232 234 242 256 281 304 314 321 326 323 319 318 320 323 327 326 325 323 322 320 318
242 259 251 148 175 201 197 277 238 238 232 243 242 237 238 237 236 234 229 226 226 224 224 222 223 225 224 226 229 231 239 253 272 297 314 320 316 313 315 317 318 322 323 323 322 321 321 320 320
218 269 228 271 203 150 211 277 255 236 242 257 252 244 243 244 236 234 230 228 226 225 223 223 224 225 226 227 228 231 236 244 260 282 304 309 309 312 315 316 315 322 325 324 322 322 322 322 321
269 249 247 253 183 215 219 255 271 267 251 264 267 259 250 243 244 240 232 227 225 225 224 223 225 226 226 227 228 229 235 240 253 275 298 306 309 312 311 311 316 326 327 326 323 323 323 323 321
269 260 266 267 195 235 251 256 271 281 275 264 269 262 253 247 253 239 233 230 227 225 224 223 225 225 225 226 227 229 233 238 250 268 291 301 305 306 308 312 321 326 323 320 320 320 321 320 320
237 259 264 283 199 213 273 269 272 266 266 267 268 268 260 253 241 232 229 228 229 230 227 225 226 226 227 229 231 232 233 238 250 268 286 294 299 302 308 314 324 323 319 318 318 319 320 320 321
234 238 258 260 313 226 283 271 245 259 253 272 267 260 257 246 239 230 227 229 230 229 230 228 227 227 228 229 231 232 234 241 253 268 282 290 298 306 312 314 321 318 316 317 317 317 317 314 313
243 234 248 268 285 275 2 289 277 272 264 249 269 264 250 249 239 233 232 229 230 233 232 231 228 227 228 230 231 233 235 241 252 264 278 290 301 307 307 312 318 316 315 314 312 311 309 308 306
244 111 181 201 250 304 252 269 274 134 251 259 263 266 252 243 236 231 235 236 235 233 234 231 228 228 229 232 233 233 237 243 253 265 277 289 299 302 304 317 317 312 309 308 307 304 301 301 299
135 119 161 162 251 255 257 232 260 190 212 244 259 266 252 226 220 221 230 231 229 230 234 231 228 227 229 231 232 234 239 246 256 270 283 294 302 307 311 316 312 310 307 304 301 297 296 297 294
193 180 285 256 238 267 131 255 263 277 237 236 250 265 253 224 212 221 231 226 222 226 235 230 227 227 228 229 231 234 240 248 258 269 282 295 300 306 309 311 308 305 302 300 298 296 295 295 290
186 215 204 274 282 289 109 251 276 229 245 250 262 257 261 239 242 243 237 230 227 232 240 235 227 226 228 228 230 234 240 249 260 273 285 292 298 303 306 307 305 303 299 298 297 295 293 293 290
157 197 318 283 100 286 256 258 229 203 238 243 252 260 256 249 254 243 237 232 227 237 246 240 230 227 228 228 229 233 241 250 263 273 283 292 297 301 308 306 303 301 302 301 299 295 293 291 289
217 118 136 198 271 270 280 290 284 234 239 234 247 242 256 252 242 240 237 237 234 244 247 240 235 230 227 226 228 232 241 251 261 272 283 289 295 303 305 304 304 306 306 304 300 296 294 290 290
177 201 203 272 226 266 281 271 148 161 152 203 224 239 253 264 260 239 234 235 239 246 246 239 232 224 224 224 225 230 240 251 262 272 280 288 298 303 302 304 306 307 305 304 300 298 296 294 293
314 233 207 225 224 236 267 273 114 249 210 232 247 269 273 276 262 225 233 241 241 248 243 236 227 221 221 222 223 229 239 250 261 272 282 292 297 300 303 306 307 307 307 307 304 300 298 295 294
Height
1547 1547 1547 1547 1549 1543 1548 1549 1549 1551 1553 1556 1557 1557 1554 1555 1551 1555 1557 1559 1561 1562 1563 1563 1563 1563 1563 1563 1562 1562 1561 1561 1561 1561 1560 1560 1559 1559 1558 1557 1557 1557 1556 1556 1556 1556 1555 1554 1553
1547 1547 1548 1548 1543 1542 1539 1544 1547 1546 1552 1555 1557 1557 1557 1554 1555 1555 1557 1559 1560 1562 1562 1563 1563 1562 1561 1561 1561 1560 1560 1560 1559 1559 1560 1560 1559 1558 1558 1558 1557 1556 1555 1555 1555 1554 1553 1552 1551
1547 1548 1550 1545 1543 1537 1538 1542 1541 1551 1553 1555 1557 1556 1556 1555 1555 1555 1555 1557 1559 1560 1561 1561 1561 1561 1561 1560 1560 1560 1559 1558 1558 1557 1557 1557 1557 1556 1556 1555 1555 1554 1554 1553 1552 1552 1551 1550 1549
1547 1549 1550 1543 1541 1540 1539 1540 1544 1551 1555 1555 1555 1555 1555 1552 1553 1553 1555 1557 1558 1559 1560 1559 1559 1560 1561 1560 1560 1559 1558 1557 1556 1555 1554 1553 1553 1552 1553 1552 1551 1551 1550 1549 1548 1548 1548 1547 1546
1548 1547 1543 1543 1542 1541 1543 1544 1546 1548 1550 1552 1554 1550 1554 1551 1551 1552 1555 1556 1557 1558 1559 1560 1561 1561 1560 1559 1559 1558 1557 1557 1555 1555 1553 1552 1551 1550 1549 1548 1547 1546 1545 1545 1544 1544 1543 1543 1543
1548 1547 1543 1541 1540 1541 1544 1545 1547 1547 1550 1552 1554 1552 1552 1547 1549 1551 1553 1554 1556 1557 1559 1559 1559 1559 1559 1558 1557 1557 1556 1556 1555 1554 1553 1551 1550 1549 1548 1547 1545 1544 1542 1541 1540 1539 1538 1537 1537
1545 1543 1540 1543 1541 1543 1542 1546 1546 1546 1549 1551 1551 1550 1549 1546 1547 1549 1550 1552 1554 1555 1556 1557 1557 1557 1557 1557 1556 1556 1555 1555 1553 1552 1551 1549 1548 1546 1544 1542 1541 1540 1538 1537 1536 1535 1533 1532 1532
1545 1543 1544 1542 1539 1539 1542 1545 1546 1547 1547 1547 1549 1544 1544 1541 1543 1545 1548 1550 1551 1552 1553 1554 1555 1555 1555 1555 1556 1555 1554 1553 1552 1551 1549 1548 1546 1544 1543 1541 1539 1537 1535 1533 1531 1528 1527 1528 1527
1545 1542 1539 1538 1542 1535 1541 1542 1544 1544 1546 1545 1543 1541 1540 1540 1541 1543 1544 1545 1547 1548 1549 1550 1552 1553 1554 1554 1553 1553 1552 1551 1551 1550 1549 1547 1546 1544 1543 1541 1538 1535 1533 1531 1529 1526 1524 1523 1522
1545 1542 1536 1537 1537 1536 1539 1540 1541 1542 1542 1541 1539 1537 1538 1538 1538 1538 1539 1541 1543 1544 1546 1548 1549 1550 1551 1551 1551 1550 1550 1549 1549 1548 1548 1546 1545 1542 1540 1538 1536 1534 1532 1530 1527 1524 1523 1520 1518
1543 1538 1538 1538 1539 1539 1538 1539 1539 1537 1535 1530 1530 1532 1532 1534 1534 1535 1537 1539 1541 1542 1543 1545 1546 1546 1547 1547 1548 1548 1548 1547 1547 1546 1544 1543 1541 1539 1538 1535 1532 1530 1527 1524 1523 1520 1518 1516 1515
1540 1537 1538 1537 1537 1537 1537 1536 1534 1532 1525 1526 1527 1527 1527 1527 1528 1529 1531 1533 1534 1536 1539 1541 1541 1542 1543 1544 1544 1544 1544 1544 1543 1542 1541 1540 1539 1537 1534 1531 1528 1525 1523 1521 1518 1516 1513 1512 1510
1537 1535 1535 1534 1534 1534 1533 1533 1531 1523 1521 1521 1521 1522 1521 1522 1522 1524 1527 1529 1530 1532 1534 1536 1538 1538 1539 1540 1540 1540 1540 1539 1539 1538 1538 1537 1535 1533 1531 1528 1525 1521 1519 1517 1514 1512 1509 1507 1504
1534 1535 1532 1531 1531 1531 1530 1527 1529 1513 1514 1515 1515 1515 1516 1515 1516 1518 1518 1520 1522 1527 1529 1531 1533 1535 1536 1536 1536 1536 1536 1536 1536 1535 1535 1533 1531 1528 1525 1522 1520 1516 1514 1511 1509 1506 1503 1501 1498
1535 1533 1530 1527 1528 1528 1528 1524 1515 1507 1509 1509 1508 1509 1509 1509 1511 1509 1511 1513 1515 1519 1522 1525 1528 1530 1531 1532 1533 1533 1532 1532 1532 1531 1530 1528 1527 1525 1522 1519 1516 1513 1509 1507 1504 1501 1498 1496 1493
1535 1534 1525 1522 1526 1526 1528 1504 1503 1504 1504 1504 1503 1503 1501 1501 1501 1504 1506 1508 1510 1513 1516 1519 1521 1523 1525 1527 1528 1528 1528 1528 1527 1527 1525 1524 1522 1520 1517 1515 1512 1509 1507 1504 1502 1498 1494 1490 1485
1533 1519 1525 1520 1522 1524 1524 1503 1499 1501 1501 1498 1497 1496 1494 1493 1493 1495 1497 1500 1502 1505 1509 1512 1516 1519 1521 1522 1523 1523 1523 1523 1523 1522 1522 1520 1518 1515 1512 1509 1507 1503 1502 1501 1498 1495 1490 1484 1480
1514 1522 1516 1517 1517 1522 1518 1505 1494 1498 1498 1491 1487 1488 1486 1483 1481 1487 1488 1491 1494 1497 1501 1505 1508 1511 1514 1516 1517 1518 1519 1519 1518 1518 1517 1514 1511 1508 1506 1504 1502 1498 1496 1494 1492 1488 1484 1479 1473
1517 1518 1512 1502 1517 1517 1506 1503 1491 1490 1490 1480 1475 1475 1474 1472 1476 1478 1480 1483 1486 1490 1495 1499 1502 1505 1507 1509 1511 1513 1514 1514 1513 1512 1510 1507 1505 1504 1501 1499 1495 1491 1490 1489 1486 1482 1478 1475 1469
1519 1516 1506 1504 1516 1517 1504 1497 1491 1487 1477 1471 1465 1460 1463 1466 1468 1469 1471 1475 1478 1483 1487 1492 1495 1498 1501 1503 1506 1507 1508 1508 1508 1507 1504 1503 1502 1499 1496 1493 1489 1487 1485 1484 1480 1476 1472 1469 1466
1514 1511 1501 1509 1510 1511 1510 1486 1480 1471 1471 1462 1452 1449 1453 1455 1458 1461 1462 1466 1471 1474 1477 1482 1487 1491 1494 1497 1499 1501 1502 1503 1502 1501 1500 1499 1497 1494 1490 1488 1484 1483 1479 1477 1475 1471 1468 1465 1462
1510 1503 1507 1510 1514 1498 1507 1465 1463 1460 1458 1459 1446 1444 1443 1445 1448 1452 1455 1458 1460 1463 1470 1475 1481 1484 1487 1489 1491 1493 1494 1495 1495 1495 1494 1493 1491 1488 1485 1482 1480 1478 1476 1472 1468 1465 1462 1460 1456
1500 1509 1509 1512 1510 1514 1494 1497 1451 1465 1460 1449 1437 1435 1435 1438 1441 1444 1447 1451 1455 1459 1462 1469 1473 1477 1480 1483 1485 1486 1488 1489 1488 1488 1488 1488 1485 1483 1481 1477 1475 1473 1469 1466 1462 1459 1456 1452 1449
1511 1509 1512 1517 1511 1498 1473 1476 1445 1451 1446 1440 1433 1429 1430 1433 1436 1439 1441 1446 1448 1452 1456 1461 1464 1468 1471 1474 1477 1479 1480 1481 1481 1481 1480 1479 1479 1477 1473 1469 1468 1465 1462 1458 1454 1451 1448 1445 1440
1508 1504 1498 1490 1496 1466 1471 1475 1442 1441 1437 1434 1426 1426 1428 1431 1432 1434 1436 1437 1440 1443 1446 1451 1455 1458 1461 1465 1468 1471 1473 1474 1474 1473 1472 1471 1470 1468 1466 1463 1461 1458 1455 1451 1447 1443 1439 1435 1430
1499 1494 1494 1490 1479 1449 1478 1450 1421 1426 1425 1422 1424 1424 1425 1427 1428 1430 1432 1433 1434 1436 1439 1441 1444 1449 1452 1456 1460 1464 1466 1466 1467 1466 1465 1463 1462 1461 1459 1456 1453 1450 1445 1442 1438 1433 1429 1424 1419
1497 1495 1490 1490 1510 1487 1428 1407 1415 1420 1419 1418 1417 1420 1416 1419 1423 1426 1426 1427 1428 1429 1430 1431 1435 1440 1444 1449 1454 1456 1458 1460 1461 1459 1457 1456 1454 1452 1451 1448 1444 1440 1437 1433 1428 1422 1417 1412 1407
1490 1492 1494 1492 1489 1468 1400 1405 1403 1409 1407 1412 1415 1414 1411 1414 1416 1418 1420 1422 1423 1423 1423 1425 1427 1430 1436 1441 1445 1449 1452 1453 1453 1451 1450 1448 1447 1445 1442 1440 1436 1432 1428 1424 1419 1412 1406 1401 1396
1491 1484 1488 1488 1484 1465 1446 1391 1388 1395 1399 1405 1406 1407 1409 1409 1410 1411 1413 1414 1416 1417 1416 1416 1418 1422 1426 1432 1436 1441 1444 1446 1446 1445 1443 1441 1440 1437 1435 1432 1428 1423 1417 1412 1407 1401 1396 1389 1383
1467 1460 1462 1462 1463 1458 1453 1386 1387 1388 1396 1400 1403 1404 1405 1406 1405 1405 1406 1407 1406 1405 1405 1407 1410 1412 1416 1423 1429 1433 1436 1439 1439 1438 1436 1434 1432 1429 1426 1423 1418 1414 1408 1403 1397 1389 1382 1376 1371